Tracking 29892 objects as of 21-Nov-2024
HD Live streaming from Space Station
objects crossing your sky now

STARLINK-30425

Track STARLINK-30425 now!
10-day predictions
STARLINK-30425 is classified as:


NORAD ID: 57850
Int'l Code: 2023-141L
Perigee: 481.3 km
Apogee: 483.4 km
Inclination: 53.2 °
Period: 94.1 minutes
Semi major axis: 6853 km
RCS: Unknown
Launch date: September 12, 2023
Source: United States (US)
Launch site: AIR FORCE WESTERN TEST RANGE (AFWTR)
Your satellite tracking list
Your tracking list is empty




NASA's NSSDC Master Catalog

Two Line Element Set (TLE):
1 57850U 23141L   24325.04737368  .00001324  00000-0  56824-4 0  9999
2 57850  53.1607 328.8746 0001480 100.5245 259.5923 15.30204755 67658
Source of the keplerian elements: AFSPC